This is the latest recevied weather packets stored in our database for station/object KB4KY. If no packets are shown the sender has not sent any weather packets the latest 10 day(s).
| Time | Temp. | Humidity | Pressure | Rain* | Wind** | Luminosity | Snow |
|---|---|---|---|---|---|---|---|
| 1777414082 | 26.11° C | 65% | 1011.7 hPa | 0 mm | - | - | - |
| 1777413479 | 26.11° C | 61% | 1011.7 hPa | 0 mm | - | - | - |
| 1777413179 | 26.11° C | 63% | 1011.4 hPa | 0 mm | - | - | - |
| 1777412884 | 26.11° C | 62% | 1011.5 hPa | 0 mm | - | - | - |
| 1777412580 | 26.11° C | 63% | 1011.6 hPa | 0 mm | - | - | - |
| 1777412519 | 26.67° C | 61% | 1011.7 hPa | 0 mm | - | - | - |
| 1777412290 | 26.67° C | 61% | 1011.7 hPa | 0 mm | - | - | - |
| 1777411978 | 26.67° C | 63% | 1011.7 hPa | 0 mm | - | - | - |
| 1777411680 | 26.67° C | 62% | 1011.6 hPa | 0 mm | - | - | - |
| 1777411378 | 26.67° C | 63% | 1011.8 hPa | 0 mm | - | - | - |
| 1777411080 | 26.11° C | 63% | 1012 hPa | 0 mm | - | - | - |
| 1777410777 | 26.11° C | 64% | 1012.2 hPa | 0 mm | - | - | - |
| 1777410480 | 26.11° C | 63% | 1012.1 hPa | 0 mm | - | - | - |
| 1777410176 | 26.67° C | 60% | 1012.4 hPa | 0 mm | - | - | - |
| 1777409876 | 26.67° C | 59% | 1012.4 hPa | 0 mm | - | - | - |
| 1777409577 | 27.22° C | 61% | 1012.6 hPa | 0 mm | - | - | - |
| 1777409445 | 26.67° C | 62% | 1012.8 hPa | 0 mm | - | - | - |
| 1777409275 | 27.22° C | 61% | 1012.5 hPa | 0 mm | - | - | - |
| 1777408975 | 27.22° C | 60% | 1012.7 hPa | 0 mm | - | - | - |
| 1777408674 | 26.67° C | 62% | 1012.8 hPa | 0 mm | - | - | - |
| 1777408384 | 26.67° C | 61% | 1013 hPa | 0 mm | - | - | - |
| 1777408367 | 26.67° C | 61% | 1013 hPa | 0 mm | - | - | - |
| 1777408074 | 26.67° C | 61% | 1013 hPa | 0 mm | - | - | - |
| 1777407778 | 27.22° C | 60% | 1013.1 hPa | 0 mm | - | - | - |
| 1777407517 | 26.67° C | 64% | 1013.3 hPa | 0 mm | - | - | - |
* Rain latest hour (hover to see other rain measurements)
** Current wind speed in m/s (hover to see current wind gust speed)